Weather History for Freeport, IL

Change the Weather History Date:

Sunday, April 7, 2013

  Actual Average Record
Temperature  
Mean Temperature 51 °F -  
Max Temperature 61 °F 54 °F 84 °F (1991)
Min Temperature 41 °F 32 °F 9 °F (1982)
Degree Days  
Heating Degree Days 14    
Growing Degree Days 1 (Base 50)    
Moisture  
Dew Point 40 °F    
Average Humidity 72    
Maximum Humidity 87    
Minimum Humidity 47    
Precipitation  
Precipitation 0.00 in - - ()
Sea Level Pressure  
Sea Level Pressure 29.88 in    
Wind  
Wind Speed 12 mph (WSW)    
Max Wind Speed 24 mph    
Max Gust Speed 30 mph    
Visibility 10 miles    
Events      
Averages and records for this station are not official NWS values.
T = Trace of Precipitation, MM = Missing Value Source: NWS Daily Summary

Daily Weather History Graph

Daily Weather History Graph

Search for Another Location

Airport:

Trip Planner

Search our weather history database for the weather conditions in past years. The results will help you decide how hot, cold, wet, or windy it might be!

Date:

Astronomy

Apr. 07, 2013 Rise Set
Actual Time 6:30 AM CDT 7:31 PM CDT
Civil Twilight 6:01 AM CDT 7:59 PM CDT
Nautical Twilight 5:27 AM CDT 8:34 PM CDT
Astronomical Twilight 4:51 AM CDT 9:09 PM CDT
Moon 4:50 AM CDT (4/7) 5:00 PM CDT (4/7)
Length of Visible Light 13h 58m
Length of Day
13h 00m
Waning Crescent, 8% of the Moon is Illuminated
Apr 7
Waning Crescent
Apr 10
New
Apr 18
First Quarter
Apr 25
Full
May 2
Last Quarter

Hourly Weather History & Observations

Time (CDT) Temp. Windchill Dew Point Humidity Pressure Visibility Wind Dir Wind Speed Gust Speed Precip Events Conditions
12:15 AM 51.4 °F - 47.7 °F 87% 29.66 in 7.0 mi West 20.7 mph 24.2 mph N/A   Overcast
12:35 AM 50.0 °F - 45.7 °F 85% 29.67 in 10.0 mi West 19.6 mph 24.2 mph N/A   Overcast
12:55 AM 49.1 °F - 44.6 °F 84% 29.68 in 10.0 mi West 17.3 mph 24.2 mph N/A   Overcast
1:15 AM 47.8 °F - 43.3 °F 84% 29.69 in 10.0 mi West 24.2 mph 29.9 mph N/A   Overcast
1:35 AM 47.5 °F - 43.0 °F 84% 29.71 in 10.0 mi West 16.1 mph 23.0 mph N/A   Overcast
1:55 AM 47.3 °F - 43.0 °F 85% 29.72 in 10.0 mi WSW 12.7 mph 18.4 mph N/A   Overcast
2:15 AM 46.9 °F - 42.3 °F 84% 29.72 in 10.0 mi West 10.4 mph 21.9 mph N/A   Overcast
2:35 AM 46.6 °F - 42.1 °F 84% 29.73 in 7.0 mi WSW 15.0 mph - N/A   Overcast
2:55 AM 46.4 °F 40.1 °F 41.0 °F 81% 29.74 in 10.0 mi West 15.0 mph 23.0 mph N/A   Overcast
3:15 AM 45.5 °F 38.9 °F 40.8 °F 84% 29.75 in 10.0 mi West 15.0 mph 25.3 mph N/A   Overcast
3:35 AM 43.9 °F 36.2 °F 39.2 °F 84% 29.76 in 10.0 mi West 17.3 mph 21.9 mph N/A   Overcast
3:55 AM 43.7 °F 36.3 °F 39.2 °F 84% 29.76 in 7.0 mi West 16.1 mph - N/A   Overcast
4:15 AM 43.7 °F 36.3 °F 39.2 °F 84% 29.77 in 7.0 mi West 16.1 mph 20.7 mph N/A   Overcast
4:35 AM 44.6 °F 39.2 °F 39.2 °F 81% 29.78 in 10.0 mi West 10.4 mph - N/A   Overcast
4:55 AM 42.6 °F 36.3 °F 38.1 °F 84% 29.79 in 10.0 mi West 11.5 mph - N/A   Overcast
5:15 AM 41.4 °F 34.7 °F 36.9 °F 84% 29.80 in 10.0 mi West 11.5 mph - N/A   Overcast
5:35 AM 41.2 °F 36.6 °F 36.9 °F 85% 29.82 in 10.0 mi West 6.9 mph - N/A   Overcast
5:55 AM 41.0 °F 34.7 °F 37.4 °F 87% 29.83 in 10.0 mi West 10.4 mph 18.4 mph N/A   Overcast
6:15 AM 41.2 °F 35.5 °F 36.9 °F 85% 29.85 in 10.0 mi West 9.2 mph 16.1 mph N/A   Overcast
6:35 AM 41.2 °F 34.1 °F 36.5 °F 83% 29.86 in 10.0 mi West 12.7 mph - N/A   Overcast
6:55 AM 41.2 °F 34.1 °F 36.1 °F 82% 29.87 in 10.0 mi West 12.7 mph 19.6 mph N/A   Overcast
7:15 AM 41.2 °F 34.1 °F 36.5 °F 83% 29.89 in 7.0 mi West 12.7 mph - N/A   Overcast
7:35 AM 41.2 °F 36.0 °F 36.5 °F 83% 29.89 in 10.0 mi West 8.1 mph - N/A   Overcast
7:55 AM 41.2 °F 35.0 °F 35.8 °F 81% 29.90 in 7.0 mi West 10.4 mph 17.3 mph N/A   Overcast
8:15 AM 41.2 °F 34.5 °F 36.1 °F 82% 29.90 in 7.0 mi West 11.5 mph - N/A   Overcast
8:35 AM 41.2 °F 35.0 °F 35.8 °F 81% 29.91 in 10.0 mi WNW 10.4 mph - N/A   Overcast
8:55 AM 42.1 °F 36.6 °F 36.1 °F 79% 29.91 in 10.0 mi West 9.2 mph - N/A   Scattered Clouds
9:15 AM 43.7 °F 37.7 °F 37.6 °F 79% 29.92 in 10.0 mi West 11.5 mph - N/A   Scattered Clouds
9:35 AM 43.7 °F 39.7 °F 36.7 °F 76% 29.93 in 10.0 mi WNW 6.9 mph - N/A   Scattered Clouds
9:55 AM 44.4 °F 39.0 °F 37.2 °F 76% 29.94 in 10.0 mi WNW 10.4 mph - N/A   Clear
10:15 AM 45.0 °F 40.6 °F 37.2 °F 74% 29.94 in 10.0 mi West 8.1 mph - N/A   Clear
10:35 AM 45.1 °F 42.8 °F 36.1 °F 71% 29.96 in 10.0 mi NW 4.6 mph - N/A   Clear
10:55 AM 46.6 °F - 37.0 °F 69% 29.96 in 10.0 mi NW 5.8 mph - N/A   Clear
11:15 AM 47.7 °F - 37.9 °F 69% 29.96 in 10.0 mi WNW 4.6 mph - N/A   Clear
11:35 AM 48.2 °F - 37.2 °F 66% 29.97 in 10.0 mi West 3.5 mph - N/A   Clear
11:55 AM 49.1 °F - 37.4 °F 64% 29.96 in 10.0 mi Calm Calm - N/A   Clear
12:15 PM 51.4 °F - 39.2 °F 63% 29.97 in 10.0 mi WSW 4.6 mph - N/A   Clear
12:35 PM 53.6 °F - 40.5 °F 61% 29.96 in 10.0 mi SW 5.8 mph - N/A   Clear
12:55 PM 54.0 °F - 40.1 °F 59% 29.96 in 10.0 mi WSW 6.9 mph - N/A   Clear
1:15 PM 54.0 °F - 39.2 °F 57% 29.96 in 10.0 mi SSW 4.6 mph - N/A   Clear
1:35 PM 54.0 °F - 38.8 °F 57% 29.96 in 10.0 mi WSW 6.9 mph - N/A   Clear
1:55 PM 54.0 °F - 38.5 °F 56% 29.96 in 10.0 mi WSW 3.5 mph - N/A   Clear
2:15 PM 56.1 °F - 39.7 °F 54% 29.95 in 10.0 mi West 5.8 mph - N/A   Clear
2:35 PM 57.2 °F - 39.2 °F 51% 29.95 in 10.0 mi Calm Calm - N/A   Clear
2:55 PM 58.8 °F - 41.4 °F 52% 29.94 in 10.0 mi WNW 8.1 mph - N/A   Clear
3:15 PM 57.9 °F - 40.6 °F 53% 29.94 in 10.0 mi Calm Calm - N/A   Clear
3:35 PM 59.0 °F - 39.6 °F 49% 29.94 in 10.0 mi WSW 3.5 mph - N/A   Clear
3:55 PM 59.0 °F - 40.6 °F 51% 29.93 in 10.0 mi North 4.6 mph - N/A   Clear
4:15 PM 59.0 °F - 39.6 °F 49% 29.93 in 10.0 mi SW 3.5 mph - N/A   Clear
4:35 PM 59.0 °F - 39.2 °F 48% 29.93 in 10.0 mi Calm Calm - N/A   Clear
4:55 PM 59.2 °F - 39.4 °F 48% 29.93 in 10.0 mi Calm Calm - N/A   Clear
5:15 PM 60.6 °F - 41.0 °F 48% 29.93 in 10.0 mi South 3.5 mph - N/A   Clear
5:35 PM 60.1 °F - 39.7 °F 47% 29.93 in 10.0 mi South 3.5 mph - N/A   Clear
5:55 PM 61.2 °F - 40.5 °F 47% 29.92 in 10.0 mi ESE 4.6 mph - N/A   Clear
6:15 PM 60.3 °F - 40.5 °F 48% 29.92 in 10.0 mi SE 5.8 mph - N/A   Clear
6:35 PM 59.0 °F - 41.0 °F 51% 29.91 in 10.0 mi SE 6.9 mph - N/A   Clear
6:55 PM 59.0 °F - 41.4 °F 52% 29.91 in 10.0 mi ESE 4.6 mph - N/A   Clear
7:15 PM 57.2 °F - 43.3 °F 60% 29.91 in 10.0 mi ESE 4.6 mph - N/A   Clear
7:35 PM 54.0 °F - 43.9 °F 69% 29.91 in 10.0 mi ESE 4.6 mph - N/A   Clear
7:55 PM 51.4 °F - 42.8 °F 72% 29.91 in 10.0 mi ESE 4.6 mph - N/A   Clear
8:15 PM 50.4 °F - 43.2 °F 76% 29.92 in 10.0 mi ESE 5.8 mph - N/A   Clear
8:35 PM 48.4 °F - 41.7 °F 78% 29.92 in 10.0 mi ESE 5.8 mph - N/A   Clear
8:55 PM 46.4 °F 42.9 °F 41.0 °F 81% 29.91 in 10.0 mi East 6.9 mph - N/A   Clear
9:15 PM 46.8 °F - 41.2 °F 81% 29.91 in 10.0 mi East 4.6 mph - N/A   Clear
9:35 PM 46.4 °F 42.9 °F 41.0 °F 81% 29.92 in 10.0 mi East 6.9 mph - N/A   Clear
9:55 PM 47.1 °F - 42.1 °F 83% 29.91 in 10.0 mi East 13.8 mph 17.3 mph N/A   Clear
10:15 PM 46.0 °F 40.2 °F 40.5 °F 81% 29.91 in 7.0 mi East 12.7 mph - N/A   Clear
10:35 PM 44.6 °F 38.8 °F 39.4 °F 82% 29.90 in 7.0 mi East 11.5 mph - N/A   Clear
10:55 PM 43.7 °F 38.1 °F 39.2 °F 84% 29.90 in 7.0 mi ENE 10.4 mph - N/A   Clear
11:15 PM 41.5 °F 34.2 °F 37.0 °F 84% 29.89 in 7.0 mi ENE 13.8 mph - N/A   Clear
11:35 PM 41.2 °F 33.7 °F 37.0 °F 85% 29.88 in 7.0 mi ENE 13.8 mph - N/A   Clear
11:55 PM 41.2 °F 35.0 °F 37.0 °F 85% 29.88 in 7.0 mi East 10.4 mph - N/A   Clear